[[{"header":{"parameterUnit":"m.s-1","parameterCategory":1,"la1":30.2991,"la2":30.254,"lo1":-89.0895,"lo2":-89.0444,"dy":0.0017,"dx":0.0017,"nx":28,"ny":28,"refTime":"2025-03-01T09:00:00:Z","depth":0,"parameterNumber":2,"parameterNumberName":"U-component_of_WINDS"},"data":[0,0,0,0,0,0,0,0,0,0,0,0,0,0,0,0,0,0,0,0,0,0,0,0,0,0,0,0,0,0,0,0,0,0,0,0,0,0,0,0,0,0,0,0,0,0,0,0,0,0,0,0,0,0,0,0,0,0,-2.5153,-2.5154,0,-2.5262,-2.5263,-2.5264,-2.5229,-2.5227,-2.5225,-2.5222,-2.534,-2.5345,-2.535,0,0,0,0,0,0,0,0,0,0,0,0,0,-2.4921,-2.4925,-2.5153,-2.5154,-2.5155,-2.5261,-2.5263,-2.5264,-2.523,-2.5227,-2.5224,-2.5221,-2.5338,-2.5345,-2.5351,0,0,0,0,0,0,0,0,0,0,0,0,0,-2.5025,-2.4927,-2.5152,-2.5151,-2.5152,-2.5261,-2.5263,-2.5265,-2.523,-2.5227,-2.5223,-2.522,-2.5336,-2.5344,-2.5352,-2.5471,0,0,-2.5376,-2.538,0,0,0,0,0,0,0,0,-2.5019,-2.5034,-2.515,-2.5151,-2.5152,-2.5228,-2.5224,-2.5334,-2.5231,-2.5201,-2.5222,-2.5218,-2.5306,-2.5316,-2.5345,-2.5477,-2.5482,-2.5377,-2.5382,-2.5385,-2.5387,0,0,0,0,0,0,0,-2.5012,-2.5029,-2.5196,-2.5151,-2.5153,-2.5147,-2.5157,-2.5245,-2.5272,-2.5203,-2.5201,-2.5214,-2.5306,-2.5337,-2.5347,-2.5484,-2.5377,-2.5384,-2.5389,-2.5392,-2.5723,-2.5726,0,0,0,0,0,0,-2.5003,-2.5023,-2.5192,-2.5199,-2.5075,-2.5154,-2.5166,-2.5207,-2.5271,-2.5277,-2.5217,-2.5212,-2.5325,-2.5338,-2.5351,-2.5497,-2.5385,-2.5393,-2.5397,-2.5719,-2.5723,-2.5728,0,0,0,0,0,0,-2.4998,-2.5019,-2.5188,-2.5111,-2.5132,-2.5161,-2.5208,-2.5211,-2.5242,-2.5281,-2.5286,-2.5243,-2.5323,-2.534,-2.5442,-2.5501,-2.5396,-2.5403,-2.5714,-2.572,-2.5726,-2.579,0,0,0,0,0,0,-2.4992,-2.5017,-2.5061,-2.5112,-2.5136,-2.5275,-2.5212,-2.5216,-2.5255,-2.525,-2.5307,-2.5313,-2.5321,-2.543,-2.545,-2.551,-2.541,-2.5709,-2.5717,-2.5724,-2.5782,-2.5797,-2.581,0,0,0,0,0,-2.4984,-2.5076,-2.5064,-2.5084,-2.5191,-2.5279,-2.5293,-2.5298,-2.526,-2.5306,-2.5331,-2.5311,-2.5491,-2.5441,-2.5463,-2.5526,-2.5705,-2.5714,-2.5723,-2.5776,-2.5794,-2.5809,0,0,0,0,0,0,-2.5033,-2.5082,-2.5069,-2.518,-2.5225,-2.5273,-2.5331,-2.5317,-2.5375,-2.5368,-2.5375,-2.5388,-2.5493,-2.552,-2.5463,-2.5647,-2.5593,-2.5606,-2.5626,-2.5643,-2.5656,-2.5649,-2.5416,0,0,0,0,0,-2.5057,-2.5122,-2.5162,-2.5256,-2.5279,-2.5301,-2.5339,-2.5339,-2.5387,-2.5407,-2.5439,-2.5489,-2.5556,-2.5601,-2.5665,-2.5785,-2.5799,-2.584,-2.5854,-2.5865,-2.5877,-2.5946,-2.5965,-2.5757,-2.5757,-2.5757,0,0,-2.5107,-2.5142,-2.5183,-2.5267,-2.5302,-2.5371,-2.5317,-2.5392,-2.5445,-2.5419,-2.5517,-2.5543,-2.5599,-2.5711,-2.5762,-2.5736,-2.5937,-2.5876,-2.5884,-2.5891,-2.5957,-2.5977,-2.5994,-2.5763,-2.5762,-2.5761,0,0,-2.5234,-2.5265,-2.5348,-2.5384,-2.5437,-2.5451,-2.5471,-2.5521,-2.5537,-2.5635,-2.5617,-2.5681,-2.5796,-2.5837,-2.5873,-2.6016,-2.6001,-2.6037,-2.6109,-2.6175,-2.6192,-2.6206,-2.626,-2.6279,-2.6049,-2.6049,-2.6049,0,-2.529,-2.5392,-2.5393,-2.547,-2.5509,-2.5486,-2.5572,-2.5607,-2.568,-2.5708,-2.5677,-2.5823,-2.5858,-2.5981,-2.6016,-2.6045,-2.607,-2.6031,-2.6189,-2.6203,-2.6217,-2.6269,-2.6288,-2.6053,-2.6053,-2.6052,-2.6052,0,-2.546,-2.553,-2.5591,-2.566,-2.5705,-2.5786,-2.5802,-2.5848,-2.5845,-2.5863,-2.5965,-2.6006,-2.6079,-2.6108,-2.6106,-2.6232,-2.6214,-2.6186,-2.6133,-2.6241,-2.629,-2.6309,-2.6059,-2.6058,-2.6056,-2.6055,0,0,-2.5622,-2.569,-2.5713,-2.5744,-2.5801,-2.5858,-2.5938,-2.6008,-2.6049,-2.6099,-2.6169,-2.6268,-2.6242,-2.6283,-2.6285,-2.6344,-2.6458,-2.6309,-2.631,-2.6337,-2.6602,-2.6624,-2.6647,-2.6447,-2.645,-2.6453,-2.6598,0,-2.5756,-2.5896,-2.5899,-2.6029,-2.6096,-2.6076,-2.6146,-2.6191,-2.621,-2.6271,-2.6293,-2.6364,-2.6324,-2.6348,-2.6405,-2.6432,-2.6511,-2.6421,-2.6515,-2.6518,-2.6504,-2.6671,-2.6695,-2.6829,-2.6616,-2.662,-2.6622,0,-2.5931,-2.5985,-2.6121,-2.6169,-2.6198,-2.6261,-2.6326,-2.6384,-2.6434,-2.6444,-2.649,-2.6484,-2.657,-2.6511,-2.6631,-2.6569,-2.6608,-2.6627,-2.6633,-2.6644,-2.6578,-2.6689,-2.6872,-2.6893,-2.6651,-2.6649,-2.6647,0,-2.6039,-2.6146,-2.6242,-2.6269,-2.6327,-2.6373,-2.64,-2.6446,-2.6488,-2.6546,-2.6574,-2.6641,-2.6679,-2.6732,-2.6746,-2.6702,-2.6866,-2.6808,-2.688,-2.688,-2.6917,-2.6915,-2.7111,-2.6938,-2.6938,-2.6937,-2.6937,0,-2.6189,-2.6273,-2.6291,-2.635,-2.6445,-2.6449,-2.6543,-2.6567,-2.6609,-2.6674,-2.6661,-2.6723,-2.6736,-2.6801,-2.6813,-2.6911,-2.6928,-2.6941,-2.6943,-2.6943,-2.6942,-2.697,-2.6963,-2.6943,-2.6942,-2.694,-2.694,0,-2.6327,-2.6342,-2.6445,-2.6491,-2.6505,-2.6573,-2.6614,-2.6672,-2.6689,-2.6772,-2.6792,-2.682,-2.6896,-2.6914,-2.7006,-2.7013,-2.7131,-2.7123,-2.7114,-2.7114,-2.7185,-2.7179,-2.7408,-2.744,-2.7244,-2.7246,-2.7247,0,-2.6423,-2.6487,-2.654,-2.6582,-2.661,-2.6678,-2.672,-2.6727,-2.6773,-2.6835,-2.6887,-2.6961,-2.7021,-2.7145,-2.7175,-2.7246,-2.7241,-2.7316,-2.7252,-2.7251,-2.7246,-2.7242,-2.725,-2.733,-2.7332,-2.7333,-2.7335,0,-2.6593,-2.6597,-2.6657,-2.6722,-2.6772,-2.6823,-2.6872,-2.6908,-2.6922,-2.6974,-2.7051,-2.7098,-2.719,-2.7266,-2.7337,-2.7367,-2.7355,-2.7354,-2.7375,-2.7377,-2.737,-2.7378,-2.715,-2.735,-2.7348,-2.7347,-2.7346,-2.7346,-2.6715,-2.6771,-2.6818,-2.6886,-2.6923,-2.6969,-2.7026,-2.705,-2.7114,-2.7188,-2.7189,-2.7274,-2.7325,-2.7418,-2.7453,-2.7521,-2.7498,-2.7528,-2.7536,-2.7543,-2.7551,-2.7357,-2.7534,-2.7533,-2.7533,-2.7533,-2.7532,0,-2.6886,-2.6914,-2.6977,-2.7045,-2.71,-2.708,-2.7134,-2.7182,-2.7256,-2.7303,-2.7362,-2.7452,-2.7525,-2.756,-2.7633,-2.7681,-2.7678,-2.7701,-2.7699,-2.7706,-2.7566,-2.7542,-2.7702,-2.7702,-2.7702,-2.7702,-2.7702,-2.7702,-2.6982,-2.7077,-2.7087,-2.7202,-2.723,-2.7312,-2.7344,-2.7388,-2.7425,-2.7525,-2.7585,-2.7607,-2.7651,-2.7727,-2.7794,-2.7803,-2.7832,-2.7858,-2.7865,-2.7733,-2.7716,-2.77,-2.7677,-2.7864,-2.7864,-2.8,-2.8001,-2.8002]},{"header":{"parameterUnit":"m.s-1","parameterCategory":1,"la1":30.2991,"la2":30.254,"lo1":-89.0895,"lo2":-89.0444,"dy":0.0017,"dx":0.0017,"nx":28,"ny":28,"refTime":"2025-03-01T09:00:00:Z","depth":0,"parameterNumber":3,"parameterNumberName":"V-component_of_WINDS"},"data":[0,0,0,0,0,0,0,0,0,0,0,0,0,0,0,0,0,0,0,0,0,0,0,0,0,0,0,0,0,0,0,0,0,0,0,0,0,0,0,0,0,0,0,0,0,0,0,0,0,0,0,0,0,0,0,0,0,0,-0.6001,-0.6002,0,-0.616,-0.6162,-0.6163,-0.624,-0.624,-0.624,-0.624,-0.6403,-0.6407,-0.6412,0,0,0,0,0,0,0,0,0,0,0,0,0,-0.5762,-0.5766,-0.6,-0.6002,-0.6004,-0.6159,-0.6162,-0.6164,-0.624,-0.624,-0.624,-0.624,-0.6402,-0.6407,-0.6412,0,0,0,0,0,0,0,0,0,0,0,0,0,-0.5888,-0.5768,-0.6,-0.6061,-0.6068,-0.6159,-0.6162,-0.6164,-0.624,-0.624,-0.624,-0.624,-0.64,-0.6406,-0.6413,-0.6455,0,0,-0.6433,-0.6436,0,0,0,0,0,0,0,0,-0.5881,-0.5897,-0.605,-0.6057,-0.6065,-0.618,-0.6138,-0.6262,-0.624,-0.6175,-0.624,-0.624,-0.6329,-0.6341,-0.6371,-0.6462,-0.6469,-0.6433,-0.6437,-0.644,-0.6442,0,0,0,0,0,0,0,-0.5872,-0.589,-0.6063,-0.6052,-0.6062,-0.6081,-0.6099,-0.6162,-0.625,-0.6181,-0.6187,-0.6204,-0.6333,-0.6365,-0.6376,-0.6472,-0.6433,-0.6439,-0.6443,-0.6446,-0.6606,-0.6607,0,0,0,0,0,0,-0.5853,-0.5883,-0.6058,-0.6068,-0.5971,-0.6085,-0.6105,-0.6143,-0.625,-0.6266,-0.6204,-0.6207,-0.6354,-0.6368,-0.6382,-0.6439,-0.644,-0.6446,-0.645,-0.6606,-0.6606,-0.6607,0,0,0,0,0,0,-0.5848,-0.5868,-0.6052,-0.5977,-0.6002,-0.6089,-0.6132,-0.6146,-0.6178,-0.6268,-0.6284,-0.6221,-0.6354,-0.6373,-0.6436,-0.6445,-0.6449,-0.6455,-0.6606,-0.6606,-0.6607,-0.6552,0,0,0,0,0,0,-0.5841,-0.5866,-0.5883,-0.5977,-0.6006,-0.6103,-0.6132,-0.615,-0.619,-0.6195,-0.6287,-0.6303,-0.6356,-0.6426,-0.6443,-0.6455,-0.646,-0.6605,-0.6606,-0.6606,-0.6553,-0.6551,-0.6548,0,0,0,0,0,-0.5832,-0.5861,-0.5883,-0.5904,-0.6028,-0.6104,-0.612,-0.6181,-0.619,-0.6208,-0.6265,-0.63,-0.6441,-0.6432,-0.6451,-0.6465,-0.6605,-0.6606,-0.6606,-0.6555,-0.6551,-0.6548,0,0,0,0,0,0,-0.5765,-0.5874,-0.59,-0.596,-0.6022,-0.6117,-0.6141,-0.6175,-0.6236,-0.6238,-0.6311,-0.6331,-0.6388,-0.6433,-0.6421,-0.6512,-0.6527,-0.6531,-0.6481,-0.6478,-0.6475,-0.6464,-0.6466,0,0,0,0,0,-0.5757,-0.5809,-0.5902,-0.5946,-0.5976,-0.6052,-0.6088,-0.6129,-0.6196,-0.6223,-0.6285,-0.6349,-0.6408,-0.6446,-0.6505,-0.656,-0.6582,-0.6579,-0.6577,-0.6574,-0.6577,-0.6611,-0.6611,-0.6609,-0.6609,-0.6609,0,0,-0.5741,-0.5807,-0.5836,-0.5934,-0.5987,-0.604,-0.6074,-0.6128,-0.6168,-0.6231,-0.6295,-0.6343,-0.6419,-0.6479,-0.6509,-0.6518,-0.6583,-0.6575,-0.6572,-0.6577,-0.6612,-0.6612,-0.6612,-0.661,-0.6609,-0.6609,0,0,-0.574,-0.5795,-0.5838,-0.589,-0.597,-0.6021,-0.6031,-0.6121,-0.6156,-0.6221,-0.627,-0.6318,-0.6418,-0.6471,-0.6511,-0.653,-0.6564,-0.6547,-0.6533,-0.6565,-0.6566,-0.6566,-0.6574,-0.6575,-0.655,-0.655,-0.655,0,-0.571,-0.5791,-0.5856,-0.5907,-0.5949,-0.6009,-0.6053,-0.6101,-0.6196,-0.6224,-0.6233,-0.6361,-0.6416,-0.649,-0.6494,-0.6524,-0.6539,-0.6537,-0.656,-0.6562,-0.6563,-0.6571,-0.6574,-0.6547,-0.6548,-0.6548,-0.6548,0,-0.5751,-0.5807,-0.5832,-0.5923,-0.5968,-0.6015,-0.6087,-0.6125,-0.6162,-0.6212,-0.6279,-0.6347,-0.6422,-0.6442,-0.6479,-0.6521,-0.6525,-0.6546,-0.6563,-0.656,-0.6568,-0.6572,-0.6544,-0.6545,-0.6545,-0.6546,0,0,-0.5712,-0.5838,-0.5846,-0.5888,-0.5981,-0.6025,-0.6076,-0.6149,-0.618,-0.6244,-0.6289,-0.6372,-0.6393,-0.6438,-0.6482,-0.6509,-0.6521,-0.6528,-0.6531,-0.6525,-0.6573,-0.6556,-0.6559,-0.6544,-0.6545,-0.6546,-0.6567,0,-0.5724,-0.5817,-0.5877,-0.5947,-0.5999,-0.6057,-0.6101,-0.6163,-0.6211,-0.6263,-0.6316,-0.6375,-0.6397,-0.6425,-0.6455,-0.6513,-0.6532,-0.6512,-0.6587,-0.6589,-0.6566,-0.6563,-0.6546,-0.6562,-0.657,-0.6571,-0.6571,0,-0.575,-0.5812,-0.5887,-0.5975,-0.6,-0.6038,-0.6111,-0.6159,-0.6231,-0.6264,-0.6314,-0.6359,-0.6415,-0.6426,-0.6505,-0.649,-0.6525,-0.6558,-0.656,-0.6569,-0.658,-0.6573,-0.6569,-0.6571,-0.6577,-0.6577,-0.6576,0,-0.5714,-0.5817,-0.5876,-0.591,-0.6013,-0.6039,-0.6084,-0.6155,-0.6196,-0.6259,-0.6286,-0.6355,-0.6393,-0.6445,-0.6507,-0.6509,-0.658,-0.6596,-0.661,-0.6608,-0.6622,-0.662,-0.6624,-0.6643,-0.6643,-0.6643,-0.6643,0,-0.5721,-0.5765,-0.5861,-0.5897,-0.5948,-0.6016,-0.6065,-0.6114,-0.6177,-0.6224,-0.6278,-0.6321,-0.64,-0.6452,-0.6501,-0.6559,-0.6576,-0.6605,-0.6617,-0.66,-0.6596,-0.6624,-0.6624,-0.6643,-0.6643,-0.6643,-0.6643,0,-0.569,-0.5756,-0.5824,-0.5916,-0.5941,-0.5974,-0.6054,-0.6091,-0.6143,-0.6201,-0.6219,-0.63,-0.6365,-0.6431,-0.6519,-0.6552,-0.6609,-0.6626,-0.6585,-0.6592,-0.6602,-0.66,-0.6623,-0.663,-0.6643,-0.6643,-0.6643,0,-0.569,-0.5725,-0.5822,-0.5858,-0.5901,-0.5957,-0.5999,-0.6067,-0.6109,-0.6193,-0.622,-0.6289,-0.6348,-0.6449,-0.6516,-0.6583,-0.6603,-0.6606,-0.6613,-0.6595,-0.6604,-0.6601,-0.6605,-0.6603,-0.6603,-0.6603,-0.6602,0,-0.5684,-0.5715,-0.5773,-0.5843,-0.5892,-0.595,-0.601,-0.6036,-0.6117,-0.6161,-0.6228,-0.6273,-0.6363,-0.6431,-0.6507,-0.6553,-0.6591,-0.66,-0.6606,-0.659,-0.6565,-0.6579,-0.6578,-0.6599,-0.6599,-0.6599,-0.66,-0.66,-0.5669,-0.5704,-0.5777,-0.5841,-0.5893,-0.5949,-0.5989,-0.6045,-0.6102,-0.6181,-0.6218,-0.6285,-0.6357,-0.6463,-0.6508,-0.6562,-0.6573,-0.6582,-0.6585,-0.6587,-0.6583,-0.6555,-0.6576,-0.6576,-0.6576,-0.6577,-0.6577,0,-0.5667,-0.5717,-0.5775,-0.5858,-0.5907,-0.5939,-0.6008,-0.6048,-0.6106,-0.617,-0.6227,-0.6304,-0.6371,-0.6443,-0.6513,-0.6543,-0.6562,-0.6559,-0.6558,-0.6568,-0.6569,-0.6556,-0.6542,-0.6542,-0.6542,-0.6542,-0.6542,-0.6542,-0.5671,-0.5731,-0.5771,-0.5858,-0.5908,-0.5975,-0.6011,-0.6063,-0.6114,-0.6198,-0.6254,-0.63,-0.6368,-0.6444,-0.6507,-0.6526,-0.655,-0.6542,-0.6566,-0.6566,-0.6568,-0.6571,-0.6559,-0.6546,-0.6546,-0.6562,-0.6562,-0.6562]}]]